#timestamp,LO_Frequency,Hit,StdDev 
1685102415.3,286047003.4,N
1685102435.1,286047007.2,N
1685102455.9,286047008.9,N
1685102475.7,286047011.2,N
1685102495.5,286047007.7,N
1685102515.4,286047009.9,N
1685102535.2,286047012.0,N
1685102555.1,286047011.9,N
1685102556.0,286047011.9,N
1685102575.8,286047009.5,N
1685102595.6,286047010.9,N
1685102615.5,286047013.7,N
1685102635.3,286047015.5,N
1685102655.1,286047012.7,N
1685102675.9,286047012.8,N
1685102695.7,286047013.7,N
1685102715.6,286047011.5,N
1685102735.4,286047005.7,N
1685102755.2,286046997.5,N
1685102775.1,286047000.6,N
1685102776.0,286047000.6,N
1685102795.8,286047001.7,N
1685102815.6,286047003.6,N
1685102835.5,286047002.9,N
1685102855.3,286047003.5,N
1685102875.2,286047005.9,N
1685102895.9,286047003.7,N
1685102915.7,286047001.8,N
1685102935.6,286047006.0,N
1685102955.4,286047003.6,N
1685102975.2,286047002.2,N
1685102995.1,286047004.2,N
1685102996.0,286047004.2,N
1685103015.8,286047004.0,N
1685103035.7,286047005.3,N
1685103055.5,286047004.1,N
1685103075.3,286046999.8,N
1685103095.2,286047005.6,N
1685103115.0,286047004.1,N
1685103115.9,286047004.1,N
1685103135.7,286047000.6,N
1685103155.6,286046998.2,N
1685103175.4,286046999.7,N
1685103195.3,286047003.6,N
1685103215.1,286047002.8,N
1685103216.0,286047002.8,N
1685103235.8,286047000.3,N
1685103255.7,286046998.3,N
1685103275.5,286047000.1,N
1685103295.3,286047000.9,N
1685103315.2,286046999.8,N
1685103335.0,286046998.5,N
1685103335.9,286046998.5,N
1685103355.8,286046999.6,N
1685103375.6,286046996.7,N
1685103395.4,286046997.6,N
1685103415.3,286046999.4,N
1685103435.1,286046999.4,N
1685103455.8,286046998.8,N
1685103475.7,286046997.2,N
1685103495.5,286046995.3,N
1685103515.4,286046997.7,N
1685103535.2,286046996.9,N
1685103555.1,286046997.4,N
1685103556.0,286046997.4,N
1685103575.8,286046996.9,N
1685103595.6,286046999.2,N
1685103615.5,286046999.1,N
1685103635.3,286046996.9,N
1685103655.1,286046999.6,N
1685103675.9,286046999.3,N
1685103695.7,286046995.9,N
1685103715.6,286046995.2,N
1685103735.4,286046996.1,N
1685103755.2,286046999.2,N
1685103775.1,286046999.4,N
1685103776.0,286046999.4,N
1685103795.8,286046997.0,N
1685103815.7,286046997.6,N
1685103835.5,286046998.8,N
1685103855.3,286046996.8,N
1685103875.2,286046997.9,N
1685103895.0,286046994.9,Y
1685103895.9,286046994.9,P
1685103915.8,286046998.1,N
1685103935.6,286046999.1,N
1685103955.4,286046998.3,N
1685103975.3,286047002.3,N
1685103995.1,286047003.6,N
1685104015.8,286047001.7,N
1685104035.7,286046996.5,N
1685104055.5,286046998.6,N
1685104075.3,286047000.6,N
1685104095.2,286047000.5,N
1685104115.0,286046997.2,N
1685104115.9,286046997.2,N
1685104135.8,286046992.6,Y
1685104155.6,286046984.4,P
1685104175.4,286046976.6,P
1685104195.3,286046979.6,N
1685104215.1,286046984.2,N
1685104235.9,286046987.4,N
1685104255.7,286046989.9,N
1685104275.5,286046988.2,N
1685104295.4,286046984.5,N
1685104315.2,286046985.9,N
1685104335.0,286046987.7,N
1685104335.9,286046987.7,N
1685104355.8,286046985.9,N
1685104375.6,286046987.9,N
1685104395.1,286046984.5,Y
1685104396.0,286046984.5,P
1685104415.8,286047000.3,N
1685104435.6,286046999.5,N
1685104455.5,286046997.1,N
1685104475.3,286046999.0,N
1685104495.1,286046998.8,N
1685104515.9,286046996.7,N
1685104535.7,286046999.6,N
1685104555.5,286046997.0,N
1685104575.4,286046995.3,N
1685104595.2,286046997.2,N
1685104615.1,286046997.1,N
1685104616.0,286046997.1,N
1685104635.8,286046994.4,N
1685104655.6,286046985.6,Y
1685104675.5,286046992.1,P
1685104695.3,286046991.2,P
1685104715.2,286046988.1,P
1685104735.9,286046987.2,Y
1685104755.7,286046998.0,P
1685104775.6,286046995.5,N
1685104795.4,286046991.1,P
1685104815.2,286046993.5,N
1685104835.1,286046994.0,N
1685104836.0,286046994.0,N
1685104855.8,286046994.5,N
1685104875.7,286046992.3,Y
1685104895.5,286046991.8,P
1685104915.3,286046995.9,P
1685104935.2,286046995.1,N
1685104955.0,286046992.8,Y
1685104955.9,286046992.8,P
1685104975.8,286046997.8,P
1685104995.6,286046999.3,N
1685105015.4,286046993.6,N
1685105035.3,286046999.9,N
1685105055.1,286047001.8,N
1685105075.8,286047002.4,N
1685105095.7,286047001.7,N
1685105115.5,286047006.4,N
1685105135.3,286047012.4,N
1685105155.2,286047012.3,N
1685105175.0,286047015.2,N
1685105175.9,286047015.2,N
1685105195.8,286047018.8,N
1685105215.6,286047016.1,N
1685105235.4,286047016.0,N
1685105255.3,286047019.3,N
1685105275.1,286047021.1,N
1685105295.9,286047021.9,N
1685105315.7,286047021.2,N
1685105335.5,286047021.8,N
1685105355.4,286047019.6,N
1685105375.2,286047020.0,N
1685105395.0,286047017.4,N
1685105396.0,286047017.4,N
1685105415.8,286047017.6,N
1685105435.6,286047018.8,N
1685105455.5,286047017.4,N
1685105475.3,286047015.0,N
1685105495.1,286047014.3,N
1685105515.9,286047012.6,N
1685105535.7,286047013.2,N
1685105555.6,286047012.1,N
1685105575.4,286047011.2,N
1685105595.2,286047009.8,N
1685105615.1,286047010.6,N
1685105616.0,286047010.6,N
1685105635.8,286047009.5,N
1685105655.6,286047009.5,N
1685105675.5,286047012.0,Y
1685105695.3,286046994.0,P
1685105715.2,286046992.9,N
1685105735.9,286046991.4,N
1685105755.7,286046989.3,N
1685105775.6,286046983.5,N
1685105795.4,286046978.4,N
1685105815.2,286046976.3,N
1685105835.1,286046978.6,N
1685105836.0,286046978.6,N
1685105855.8,286046977.5,N
1685105875.7,286046982.0,N
1685105895.5,286046976.6,N
1685105915.3,286046968.6,N
1685105935.2,286046969.1,N
1685105955.9,286046967.7,N
1685105975.7,286046970.0,N
1685105995.6,286046970.6,N
